Nuiqsut, AK

4:19 PM AKDT on April 23, 2018 (GMT -0800)
Nuiqsut

Weather History for PAQT - March, 2014

Change the Weather History Date:

Saturday, March 15, 2014

  Actual Average (PAKU) Record (PAKU)
Temperature  
Mean Temperature -12 °F -  
Max Temperature -4 °F -5 °F 26 °F (2007)
Min Temperature -18 °F -14 °F -41 °F (2012)
Degree Days  
Heating Degree Days 76    
Moisture  
Dew Point -16 °F    
Average Humidity 87    
Maximum Humidity 96    
Minimum Humidity 82    
Precipitation  
Precipitation 0.00 in - - ()
Sea Level Pressure  
Sea Level Pressure 29.48 in    
Wind  
Wind Speed 8 mph (SW)    
Max Wind Speed 15 mph    
Max Gust Speed -    
Visibility 10 miles    
Events      
Averages and records for this station are not official NWS values.
T = Trace of Precipitation, MM = Missing Value Source: NWS Daily Summary

Daily Weather History Graph

Daily Weather History Graph

Search for Another Location

Airport or City:

Astronomy

Mar. 15, 2014 Rise Set
Actual Time 8:25 AM AKDT 8:02 PM AKDT
Civil Twilight 7:23 AM AKDT 9:04 PM AKDT
Nautical Twilight 6:08 AM AKDT 10:20 PM AKDT
Astronomical Twilight 4:34 AM AKDT 11:56 PM AKDT
Moon 7:30 PM AKDT (3/15) 7:57 AM AKDT (3/15)
Length of Visible Light 13h 40m
Length of Day
11h 37m
Waxing Gibbous, 99% of the Moon is Illuminated
Mar 15
Waxing Gibbous
Mar 16
Full
Mar 23
Last Quarter
Mar 30
New
Apr 7
First Quarter

Hourly Weather History & Observations

Time (AKDT) Temp. Windchill Dew Point Humidity Pressure Visibility Wind Dir Wind Speed Gust Speed Precip Events Conditions
12:53 AM -16.1 °F -30.6 °F -18.0 °F 91% 29.43 in 10.0 mi WSW 5.8 mph - N/A   Clear
1:53 AM -16.1 °F -30.6 °F -17.0 °F 96% 29.44 in 10.0 mi WSW 5.8 mph - N/A   Clear
2:53 AM -15.0 °F -29.3 °F -18.9 °F 82% 29.44 in 10.0 mi WSW 5.8 mph - N/A   Clear
3:53 AM -16.1 °F -32.3 °F -18.9 °F 87% 29.43 in 10.0 mi WSW 6.9 mph - N/A   Clear
4:53 AM -15.0 °F -31.0 °F -18.0 °F 86% 29.43 in 10.0 mi WSW 6.9 mph - N/A   Clear
5:53 AM -17.0 °F -33.4 °F -20.0 °F 86% 29.43 in 10.0 mi SW 6.9 mph - N/A   Clear
6:53 AM -18.0 °F -36.1 °F -20.0 °F 91% 29.43 in 10.0 mi SSW 8.1 mph - N/A   Clear
7:53 AM -18.0 °F -38.6 °F -20.9 °F 87% 29.43 in 10.0 mi SSW 10.4 mph - N/A   Clear
8:53 AM -18.0 °F -36.1 °F -20.9 °F 87% 29.44 in 10.0 mi SSW 8.1 mph - N/A   Clear
9:53 AM -17.0 °F -34.8 °F -18.9 °F 91% 29.44 in 10.0 mi SSW 8.1 mph - N/A   Clear
10:09 AM -17.0 °F -34.8 °F -18.9 °F 91% 29.44 in 10.0 mi SSW 8.1 mph - N/A   Scattered Clouds
10:53 AM -16.1 °F -35.0 °F -18.9 °F 87% 29.44 in 10.0 mi SW 9.2 mph - N/A   Overcast
11:53 AM -15.0 °F -33.7 °F -17.0 °F 91% 29.46 in 10.0 mi SSW 9.2 mph - N/A   Overcast
12:53 PM -13.0 °F -30.0 °F -16.1 °F 86% 29.47 in 10.0 mi South 8.1 mph - N/A   Overcast
1:53 PM -11.0 °F -29.9 °F -14.1 °F 86% 29.48 in 8.0 mi SSW 10.4 mph - N/A   Overcast
2:53 PM -9.9 °F -27.5 °F -13.0 °F 86% 29.48 in 10.0 mi SSW 9.2 mph - N/A   Mostly Cloudy
3:53 PM -9.0 °F -25.2 °F -13.0 °F 83% 29.48 in 10.0 mi SW 8.1 mph - N/A   Clear
4:53 PM -9.0 °F -23.8 °F -11.9 °F 87% 29.49 in 10.0 mi SSW 6.9 mph - N/A   Clear
5:53 PM -9.0 °F -26.4 °F -13.0 °F 83% 29.52 in 10.0 mi SSW 9.2 mph - N/A   Clear
6:53 PM -11.0 °F -26.2 °F -14.1 °F 86% 29.53 in 10.0 mi SW 6.9 mph - N/A   Clear
7:53 PM -11.9 °F -23.8 °F -15.0 °F 86% 29.55 in 10.0 mi SSW 4.6 mph - N/A   Clear
8:53 PM -13.0 °F -28.6 °F -16.1 °F 86% 29.56 in 10.0 mi South 6.9 mph - N/A   Clear
9:53 PM -11.9 °F -29.9 °F -16.1 °F 82% 29.59 in 10.0 mi SSW 9.2 mph - N/A   Clear
10:53 PM -5.1 °F -25.9 °F -8.0 °F 87% 29.61 in 10.0 mi SW 15.0 mph - N/A   Overcast
11:53 PM -5.1 °F -25.9 °F -8.0 °F 87% 29.65 in 10.0 mi West 15.0 mph - N/A   Overcast